Regional Weather Roundup
Issued by NWS

Home | Current Version | Previous Version | Graphics & Text | Print | Product List | Glossary On
Versions: 1 2 3 4 5 6 7 8 9 10 11 12 13 14 15 16 17 18 19 20 21 22 23 24 25 26 27 28 29 30 31 32 33 34 35 36 37 38 39 40 41 42 43 44 45 46 47 48 49 50
000
ASUS43 KIND 241959
RWRIN

WEATHER ROUNDUP FOR INDIANA
NATIONAL WEATHER SERVICE INDIANAPOLIS IN
400 PM EDT TUE APR 24 2018

NOTE: "FAIR" INDICATES FEW OR NO CLOUDS BELOW 12,000 FEET WITH NO
SIGNIFICANT WEATHER AND/OR OBSTRUCTIONS TO VISIBILITY.

* - STATION DOES NOT REPORT WEATHER SUCH AS PRECIPITATION OR FOG.

+ - STATION NOT QUALITY CONTROLLED BY THE NATIONAL WEATHER SERVICE.
    USE DATA WITH CAUTION...ESPECIALLY DEWPOINT AND RELATIVE
    HUMIDITY OBSERVATIONS.

INZ001>003-010>013-019-020-242100-
NORTHWEST INDIANA

CITY           SKY/WX    TMP DP  RH WIND       PRES   REMARKS
GARY /AIRPORT/ PTSUNNY   57  46  67 N12       30.02F
KNOX *+        CLOUDY    59  50  72 NE10      29.97F
MONTICELLO +   CLOUDY    57  50  76 NE7       29.96
RENSSELAER +   CLOUDY    63  46  55 NE10      29.97F

$$

LMZ046-743>745-242100-
SOUTHERN LAKE MICHIGAN

STATION/POSITION TIME  TEMP    WIND        PRES    WAVE
                       AIR SEA DIR/SP/G            HT
                 (UTC) (F)     (DEG/KT/KT) (MB)    (FT)
BURNS HARBOR     1940   46      60/  5/  6 1016.9F
MICHIGAN CITY    1930   42      30/  5/  5   N/A

$$

INZ004-005-014>016-021>024-242100-
NORTH CENTRAL INDIANA

CITY           SKY/WX    TMP DP  RH WIND       PRES   REMARKS
ELKHART        CLOUDY    59  48  67 NE9       29.98F
GOSHEN         CLOUDY    58  50  75 E9        29.98F
ROCHESTER +    CLOUDY    59  52  77 N6        29.98S
SOUTH BEND     CLOUDY    61  49  64 NE6       29.99F
WARSAW +       CLOUDY    55  50  82 E7        29.97F

$$

INZ006>009-017-018-025>027-242100-
NORTHEAST INDIANA

CITY           SKY/WX    TMP DP  RH WIND       PRES   REMARKS
ANGOLA *+      CLOUDY    55  50  82 E9        29.98F
FORT WAYNE     DRIZZLE   55  52  89 E12       29.97F
KENDALLVILLE + CLOUDY    55  47  76 E6        29.98F HAZE

$$

INZ028-029-035-036-043>045-051>053-242100-
WEST CENTRAL INDIANA

CITY           SKY/WX    TMP DP  RH WIND       PRES   REMARKS
CRAWFORDSVL +  CLOUDY    54  54 100 N7        29.95F
GREENCASTLE +  CLOUDY    54  52  94 N8        29.95S
LAFAYETTE      CLOUDY    58  52  80 NE9       29.95F
TERRE HAUTE    CLOUDY    59  52  77 N10       29.94F

$$

INZ030>032-037>040-046>048-054>057-064-065-242100-
CENTRAL INDIANA

CITY           SKY/WX    TMP DP  RH WIND       PRES   REMARKS
ANDERSON         N/A     55  52  88 E6        29.95S
COLUMBUS       CLOUDY    55 N/A N/A N5        29.92F
GREENWOOD *+   CLOUDY    55  53  92 N6        29.94S
INDIANAPOLIS   CLOUDY    57  52  83 N7        29.93F
-EAGLE CREEK   CLOUDY    56  52  86 N6        29.93F
KOKOMO +       CLOUDY    55  53  93 NE8       29.96F
MT COMFORT *+  CLOUDY    55  55 100 NE8       29.94S
SHELBYVILLE    CLOUDY    58  52  80 NE8       29.92S
ZIONSVILLE +   LGT RAIN  54  53  97 NE5       29.95F

$$

INZ033-034-041-042-049-050-058-059-242100-
EAST CENTRAL INDIANA

CITY           SKY/WX    TMP DP  RH WIND       PRES   REMARKS
MUNCIE         CLOUDY    58  53  84 E9        29.94F
RICHMOND +     CLOUDY    52  52 100 NE8       29.93F

$$

INZ060-061-067>069-081>083-085>088-242100-
SOUTHWEST INDIANA

CITY           SKY/WX    TMP DP  RH WIND       PRES   REMARKS
EVANSVILLE     CLOUDY    57  54  89 NW8       29.94S
HUNTINGBURG +  CLOUDY    57  53  86 NW8       29.93R

$$

INZ062-063-066-070>080-084-089>092-242100-
SOUTH CENTRAL AND SOUTHEAST INDIANA

CITY           SKY/WX    TMP DP  RH WIND       PRES   REMARKS
BLOOMINGTON    CLOUDY    56  53  90 N7        29.92F
FRENCH LICK *+ CLOUDY    55 N/A N/A CALM      29.92F
SEYMOUR +      CLOUDY    57  55  94 N6        29.91S FOG

$$





USA.gov is the U.S. government's official web portal to all federal, state and local government web resources and services.